Regional Weather Roundup
Issued by NWS Northern Indiana

Home | Current Version | Previous Version | Graphics & Text | Print | Product List | Glossary On
Versions: 1 2 3 4 5 6 7 8 9 10 11 12 13 14 15 16 17 18 19 20 21 22 23 24 25 26 27 28 29 30 31 32 33 34 35 36 37 38 39 40 41 42 43 44 45 46 47 48 49 50
000
ASUS43 KIWX 170200
RWRIWX

KIWX WEATHER ROUNDUP
NATIONAL WEATHER SERVICE NORTHERN INDIANA
1000 PM EDT WED APR 16 2014

NOTE: "FAIR" INDICATES FEW OR NO CLOUDS BELOW 12,000 FEET WITH NO
SIGNIFICANT WEATHER AND/OR OBSTRUCTIONS TO VISIBILITY.

* THESE STATIONS ARE NOT UNDER NWS QUALITY CONTROL. THEY ALSO MAY NOT
  REPORT WEATHER SUCH AS PRECIPITATION OR FOG.

INZ001>027-170300-
NORTHERN INDIANA

CITY           SKY/WX    TMP DP  RH WIND       PRES   REMARKS
VALPARAISO     PTCLDY    43  23  45 SE12      30.20R
SOUTH BEND     NOT AVBL
GOSHEN         CLEAR     41  25  53 E9        30.25R
ANGOLA*        CLEAR     39  27  60 SE13      30.28S
FORT WAYNE     MOCLDY    40  26  57 E10       30.28S
PERU/GRISSOM   PTCLDY    41  28  59 SE12      30.23R

$$
INZ028>050-170300-
CENTRAL INDIANA

CITY           SKY/WX    TMP DP  RH WIND       PRES   REMARKS
LAFAYETTE      CLEAR     42  24  49 SE7       30.21R
KOKOMO*        PTCLDY    41  27  56 SE10      30.24R
MUNCIE*        PTCLDY    39  26  59 E7        30.25R
INDIANAPOLIS   MOCLDY    43  22  43 SE9       30.23R

$$
MIZ043>046-050>051-056>058-064>065-071>073-077>080-170300-
SOUTHWEST LOWER MICHIGAN

CITY           SKY/WX    TMP DP  RH WIND       PRES   REMARKS
BATTLE CREEK   CLEAR     40  23  50 SE9       30.29R
BENTON HARBOR  PTCLDY    43  23  45 SE13      30.22S
COLDWATER*     CLEAR     38  25  59 E8G16     30.29S
HILLSDALE*     CLEAR     35  26  70 E13G21    30.31S WCI  26
HOLLAND        MOCLDY    44  24  45 E13       30.25S
GRAND RAPIDS   MOCLDY    41  23  48 SE13      30.29R
KALAMAZOO      CLEAR     41  23  48 SE10      30.28R
STURGIS*       CLEAR     39  25  56 E12       30.27R
THREE RIVERS*  FAIR      41  24  52 E9        30.28R

$$
OHZ001>008-015>018-024>025-170300-
NORTHWEST OHIO

CITY           SKY/WX    TMP DP  RH WIND       PRES   REMARKS
DEFIANCE       CLEAR     40  27  59 E13       30.32S
FINDLAY        PTCLDY    41  25  53 E8        30.32S
TOLEDO EXPRESS CLEAR     34  26  72 E12       30.36R WCI  25
TOLEDO METCALF CLEAR     35  27  72 E8        30.38S WCI  29
LIMA           MOCLDY    37  28  70 E8        30.30S

$$
&&



USA.gov is the U.S. government's official web portal to all federal, state and local government web resources and services.